Theta_e
311 315 315 315 314 313 313 313 314 314 315 313 316 317 317 316 316 316 316 316 316 315 315 315 315 315 316 316 317 317 319 320 333 339 343 340 336 335 331 329 327 328 330 328
313 314 314 314 312 312 312 314 315 315 314 314 316 317 317 317 316 315 316 316 316 316 316 315 315 315 315 316 317 317 316 317 323 333 337 341 339 340 339 336 334 331 328 327
314 314 312 312 313 313 314 314 315 315 315 316 317 317 317 316 314 315 315 315 315 315 315 314 314 315 315 316 316 317 316 317 320 327 336 341 342 341 340 341 339 333 327 326
313 313 312 313 313 314 315 314 314 314 316 317 317 318 318 317 317 316 316 316 315 314 314 314 314 314 314 314 315 315 318 317 320 332 337 339 334 333 333 339 341 334 328 335
315 313 313 314 314 313 315 313 315 316 317 318 317 318 318 317 317 317 316 315 316 316 316 315 314 314 313 314 314 314 316 319 319 327 336 334 336 337 333 336 341 339 338 339
314 312 313 315 314 313 316 316 317 316 318 318 318 318 318 317 317 316 316 316 316 315 315 315 315 315 314 315 315 316 315 317 320 321 329 336 336 337 336 339 343 341 342 341
316 315 315 313 314 316 316 317 318 318 318 319 317 317 317 316 316 315 316 316 315 314 314 315 315 315 315 316 316 316 316 316 318 321 326 333 337 338 338 341 343 341 340 339
315 316 314 315 315 316 317 318 318 320 319 318 316 317 317 315 314 314 315 316 314 314 315 315 315 315 317 317 316 316 317 316 317 321 326 334 337 340 342 342 339 338 332 330
315 315 314 316 316 316 318 318 317 318 318 319 316 315 315 314 314 315 315 314 313 314 315 315 315 316 316 318 318 317 316 317 316 323 329 337 336 333 328 323 318 317 316 317
315 316 313 315 316 315 317 316 319 319 318 316 314 314 313 313 314 315 314 314 313 314 315 316 315 316 316 316 319 319 317 317 317 326 324 322 318 317 316 316 315 315 315 315
314 315 314 315 316 315 317 318 317 316 317 317 316 312 314 314 313 313 314 313 313 314 315 316 315 314 316 316 317 320 319 322 322 325 319 317 316 315 315 316 316 315 315 316
313 316 315 314 314 312 313 317 318 320 316 318 318 316 312 312 312 313 312 312 313 314 313 315 316 314 315 317 315 317 320 319 321 320 316 316 315 315 315 315 317 317 317 320
313 313 314 314 312 312 315 314 315 315 314 313 315 314 313 312 312 312 311 312 314 313 312 313 315 316 316 316 317 316 315 316 317 318 317 317 316 316 316 315 315 317 319 319
312 313 314 315 314 313 314 314 314 315 317 316 316 314 313 313 312 312 312 313 313 313 311 311 313 314 313 314 315 316 316 317 315 315 316 316 317 316 319 318 317 316 316 316
311 312 311 311 312 312 311 311 312 314 314 315 314 313 312 312 312 312 313 313 313 311 309 309 310 313 312 312 312 314 316 317 316 315 316 315 316 318 319 319 318 319 318 318
309 311 311 310 309 309 309 309 309 311 312 312 312 312 312 312 313 314 314 313 311 310 309 308 309 312 312 311 311 310 310 313 315 314 315 315 315 316 317 320 319 319 319 319
309 309 309 309 308 310 310 309 309 309 310 310 311 312 315 315 315 314 313 312 310 309 308 307 308 309 310 310 310 311 310 309 309 311 315 315 315 314 316 317 320 318 318 319
308 308 309 308 308 310 309 314 314 314 314 314 315 315 315 313 313 311 310 309 309 307 307 307 307 307 307 307 308 308 308 308 308 308 310 313 316 315 314 316 317 318 318 318
306 309 310 310 312 310 311 314 314 314 314 313 313 313 312 310 309 308 308 307 307 306 306 306 306 306 306 306 306 306 306 307 307 307 307 309 312 314 312 313 314 316 317 318
306 308 310 309 310 313 312 313 310 311 314 312 310 309 309 308 308 309 307 307 307 306 306 306 306 305 306 306 306 305 305 306 306 307 307 307 308 309 310 310 313 313 315 315
311 309 309 309 312 311 311 311 309 314 313 308 308 307 307 308 308 307 306 306 305 305 305 305 304 305 305 306 305 304 304 305 306 306 306 306 306 306 308 309 310 311 312 312
313 314 313 312 313 313 310 311 311 310 308 307 306 306 306 305 304 304 304 304 304 303 304 303 304 304 305 304 304 304 305 305 305 305 304 304 305 306 306 307 308 309 309 310
313 313 314 312 314 309 309 307 307 306 306 306 305 304 304 304 303 302 302 302 302 302 303 303 302 304 303 302 303 304 303 303 303 303 303 303 304 304 305 306 306 306 307 308
310 309 312 310 310 309 307 307 306 304 304 304 304 304 302 301 301 301 301 301 300 299 301 299 301 300 300 300 303 303 303 302 302 302 302 303 303 304 305 306 306 307 307 309
309 310 310 309 308 307 307 306 304 304 303 303 302 302 302 301 301 301 300 299 299 298 298 299 299 297 298 299 300 301 301 301 301 302 302 302 303 304 305 306 306 306 307 308
308 309 309 309 306 304 305 304 303 303 303 302 302 301 301 300 300 299 299 298 297 297 296 296 296 297 297 298 298 299 301 301 300 300 300 301 301 302 302 304 305 305 306 307
Wind_Speed
2 5 11 13 10 4 4 6 9 12 13 5 11 12 12 17 19 18 17 16 16 22 26 26 26 25 25 26 29 38 40 41 43 43 43 45 45 44 44 44 42 34 39 43
4 11 12 8 8 8 7 9 11 11 11 7 12 14 15 15 12 12 15 21 26 28 28 32 29 26 27 27 26 38 41 45 48 49 46 47 44 43 42 45 41 32 37 39
11 3 9 9 8 9 10 10 10 11 9 8 12 15 10 8 13 17 19 21 24 26 30 36 37 31 28 28 27 26 39 40 50 51 51 48 45 39 43 44 37 34 34 38
9 13 12 8 10 10 12 10 13 10 8 10 4 9 16 11 8 9 19 21 19 23 28 29 34 38 37 34 33 29 28 39 45 51 52 51 48 45 44 42 38 33 36 33
4 5 6 8 9 12 9 4 9 10 11 8 13 13 3 11 16 13 8 19 23 24 26 31 31 35 38 34 35 34 28 29 43 50 51 51 49 42 42 41 34 33 33 34
10 3 4 7 2 9 2 4 4 2 5 13 16 13 5 8 13 11 16 12 17 24 27 27 27 31 36 33 34 33 30 26 33 44 49 49 49 45 41 39 31 32 33 33
11 17 11 10 13 7 6 6 7 7 8 12 5 10 13 15 16 12 9 10 18 24 29 30 31 28 28 31 33 34 33 29 27 36 44 46 45 43 42 39 33 34 33 32
6 9 5 5 12 9 9 10 7 9 12 16 12 9 9 5 14 15 12 12 20 24 27 27 29 29 27 29 32 36 33 32 30 31 39 41 39 39 37 35 35 31 29 29
5 5 1 3 2 2 5 7 1 6 6 10 11 14 11 13 11 7 10 17 24 27 28 28 24 28 26 29 27 29 33 33 32 32 36 36 33 31 29 25 23 21 22 24
4 6 2 2 3 6 3 7 3 1 7 16 10 15 12 15 7 10 13 18 24 26 27 30 25 22 27 23 26 22 23 25 28 36 33 28 21 19 19 19 19 18 18 19
1 5 5 1 6 11 4 4 2 1 3 6 12 6 3 9 12 15 11 21 23 21 23 26 24 19 21 19 19 20 13 14 23 26 24 21 18 14 12 12 14 14 14 14
1 3 9 15 11 4 5 9 9 6 6 5 8 17 15 19 11 8 20 28 21 17 19 21 23 14 9 14 21 12 6 8 22 25 22 19 17 16 13 14 16 13 12 13
1 2 5 4 4 3 6 6 7 4 6 16 15 13 5 6 15 25 26 22 16 15 18 19 19 16 12 14 12 10 15 9 4 10 15 17 19 19 18 17 12 14 14 13
1 6 11 11 10 5 7 11 14 14 8 16 18 28 25 22 21 21 22 15 15 16 16 20 18 14 15 14 13 10 12 16 10 11 14 23 23 24 26 20 22 18 17 15
9 11 16 18 21 18 15 15 14 17 21 20 25 25 24 24 22 21 17 15 14 16 21 20 18 15 13 14 14 12 4 22 23 20 13 15 24 27 29 27 26 24 22 20
3 10 5 12 11 14 18 21 21 23 24 24 25 30 21 18 12 13 16 17 19 21 25 20 19 17 16 15 15 14 11 8 19 25 25 22 14 26 33 34 31 30 27 25
6 6 5 13 7 9 12 18 19 20 19 16 18 20 10 13 14 18 19 19 25 28 25 24 23 20 20 24 21 22 18 14 10 10 33 32 20 11 17 28 34 34 31 30
13 6 4 7 6 6 2 2 2 4 10 11 16 17 16 17 18 23 23 27 30 28 30 29 29 30 29 26 23 21 25 20 19 19 16 20 35 18 14 21 27 31 33 35
14 11 4 3 5 13 9 1 2 3 13 11 16 15 14 21 30 35 30 22 24 32 35 36 35 34 30 28 27 26 24 24 22 21 21 21 20 26 18 17 17 20 23 29
6 7 7 3 4 4 4 2 4 3 11 7 9 19 25 30 18 18 27 31 41 39 39 40 38 36 34 31 27 27 27 25 24 22 20 24 23 24 25 21 21 20 19 23
3 2 9 8 4 7 3 4 6 5 6 21 22 31 31 20 24 41 41 45 42 44 41 41 44 44 38 34 32 32 31 29 25 23 22 24 26 28 31 29 27 26 27 27
3 4 3 3 4 4 6 8 6 13 31 22 33 36 31 34 41 44 45 45 43 44 46 45 43 43 39 39 37 35 32 29 26 26 27 27 25 25 25 32 34 33 32 32
2 2 1 3 3 2 7 12 21 16 23 37 35 37 40 39 43 46 47 48 50 48 46 41 44 41 37 40 42 40 36 31 32 31 32 31 29 27 27 29 32 32 33 34
1 2 3 4 0 13 19 16 21 29 29 36 37 36 40 46 49 50 48 41 42 43 36 43 40 36 40 39 37 40 36 32 30 31 30 28 27 27 27 27 26 25 28 29
2 2 2 6 10 19 2 23 29 35 37 35 38 43 45 48 48 48 48 48 44 43 44 37 34 41 38 34 33 35 31 30 31 30 28 29 27 25 24 25 24 27 28 29
1 1 2 5 12 11 22 26 29 32 37 39 42 49 48 46 50 51 47 45 45 41 39 38 36 32 34 34 32 29 29 29 29 27 28 27 27 28 27 27 27 28 28 27
Wind_Direction
117 209 217 213 209 221 238 242 257 265 273 276 278 285 290 302 304 303 303 298 288 294 302 303 300 295 291 278 263 241 247 251 244 236 229 228 230 233 235 238 242 235 225 223
199 243 239 213 202 218 220 256 263 272 262 215 278 277 289 282 279 279 288 295 297 296 294 301 298 288 289 281 277 244 240 244 243 243 235 231 231 234 237 239 241 235 226 226
224 210 103 194 211 228 234 236 261 271 303 245 279 280 270 270 247 272 276 275 278 283 292 300 296 290 287 287 280 271 243 243 241 237 235 233 231 234 233 236 235 227 220 226
242 249 246 226 240 220 263 229 254 270 281 290 12 291 295 297 275 266 283 298 313 308 302 298 296 292 290 282 281 286 270 242 241 240 235 233 233 233 237 238 233 218 215 219
209 182 169 204 233 185 255 204 255 277 270 290 279 279 226 285 293 291 329 326 327 329 315 297 292 289 284 282 279 278 278 256 242 237 237 237 235 234 237 239 231 222 217 216
258 254 239 255 192 205 154 260 287 268 279 262 270 261 290 291 291 298 311 325 338 343 338 328 311 298 287 281 272 274 271 269 245 239 238 238 236 233 233 234 230 221 219 223
255 244 256 232 256 189 214 255 271 258 239 267 329 289 270 290 282 296 289 315 333 331 332 329 326 315 299 284 273 275 274 265 257 236 233 236 237 237 238 235 226 227 230 234
261 271 214 186 226 248 207 218 232 267 273 286 306 264 288 285 300 298 284 320 334 336 335 329 331 325 317 296 279 273 272 265 255 240 230 230 231 231 230 231 231 228 225 228
199 248 267 50 123 232 155 211 308 275 243 275 264 269 272 272 290 338 341 343 346 336 331 327 318 334 332 329 302 280 269 264 254 237 225 222 223 220 215 214 213 216 219 221
197 268 204 111 103 60 233 137 189 213 283 283 273 283 271 287 292 318 325 337 337 330 332 332 317 315 333 333 335 303 276 254 243 224 212 205 198 199 204 209 215 217 221 225
166 250 237 223 229 248 177 199 105 317 212 273 297 267 205 271 296 304 301 322 325 324 330 333 326 312 325 332 343 339 287 239 230 212 193 190 187 184 194 204 203 199 199 204
4 262 257 260 271 274 261 240 216 224 226 235 264 280 275 273 282 259 293 312 313 315 330 334 340 321 323 1 30 23 343 201 188 184 187 183 182 175 178 188 194 190 186 185
123 244 277 250 208 188 235 206 218 231 255 249 263 267 189 215 295 298 303 306 305 318 332 339 347 353 332 335 335 7 43 37 243 221 197 201 199 195 194 194 177 189 181 180
317 258 255 259 288 304 263 240 228 224 236 262 252 273 279 288 293 303 300 293 304 314 326 334 333 344 352 0 351 296 239 294 350 341 260 253 222 206 220 205 202 195 193 195
240 245 256 258 264 268 264 258 245 229 243 253 273 275 287 296 297 292 285 287 302 313 321 324 320 318 333 351 360 2 282 245 274 303 295 291 238 226 236 226 219 212 209 211
228 256 239 266 274 272 270 263 256 253 253 257 264 277 287 295 284 267 273 287 298 305 311 311 313 303 304 312 321 335 348 344 240 260 271 297 311 232 226 230 227 224 218 218
252 247 266 277 299 296 270 260 260 258 257 259 261 273 313 281 279 278 287 290 296 301 301 300 300 297 295 294 296 294 302 300 285 274 243 263 277 305 245 231 231 230 226 224
237 229 228 277 297 254 28 342 342 291 274 260 269 274 281 294 289 288 285 288 290 295 298 296 293 292 291 284 284 284 285 284 281 275 266 248 251 271 276 243 237 236 231 230
220 211 214 240 237 293 291 89 317 337 297 289 288 305 309 308 301 287 286 282 288 293 293 290 288 286 284 281 280 281 279 276 274 271 269 262 238 245 251 238 234 227 225 223
146 204 197 177 243 267 46 157 351 294 281 37 337 311 305 304 287 283 293 293 295 290 288 288 287 284 278 274 273 277 277 272 269 264 262 260 252 245 243 242 222 224 220 217
125 150 213 227 254 276 4 338 309 268 342 317 315 313 305 291 278 289 292 293 290 287 284 289 282 278 274 271 269 270 271 269 266 264 261 258 257 255 251 250 242 236 229 231
200 187 190 199 236 265 23 340 322 319 305 305 312 307 298 293 293 292 293 291 290 289 280 282 280 276 267 272 265 263 262 264 264 261 259 258 257 253 252 252 247 246 247 244
241 345 328 241 296 338 297 298 301 303 302 308 310 307 301 297 295 295 294 291 288 285 281 275 281 267 268 272 261 256 261 264 260 260 258 255 253 252 249 245 248 248 246 245
90 181 257 318 147 320 315 312 323 317 310 309 305 303 309 302 299 298 299 300 299 297 276 293 274 265 274 273 254 252 258 262 256 257 254 247 247 245 239 237 239 241 241 243
306 305 341 270 295 325 306 319 320 319 314 311 311 306 304 305 304 304 304 304 301 298 292 284 274 282 271 265 255 249 255 252 249 250 246 245 248 242 234 238 242 238 240 238
198 137 276 292 329 297 298 312 317 312 314 316 313 310 309 311 308 308 306 306 303 301 296 290 284 273 273 271 264 257 249 243 238 250 248 239 240 239 241 247 246 247 242 238